EN

Hourly Weather Lancaster

Today, 19 January, Tuesday

Time Temperature Precipitation Wind Pressure Humidity
00:00 +6°C° 0 mm 4 mps 749 mmHg 98%
01:00 +6°C° 0.4 mm 4 mps 749 mmHg 98%
02:00 +7°C° 0.4 mm 4 mps 748 mmHg 98%
03:00 +7°C° 0.4 mm 5 mps 747 mmHg 98%
04:00 +7°C° 0.7 mm 5 mps 746 mmHg 98%
05:00 +7°C° 0.7 mm 5 mps 746 mmHg 98%
06:00 +7°C° 0 mm 5 mps 746 mmHg 98%
07:00 +7°C° 1 mm 5 mps 746 mmHg 98%
08:00 +6°C° 1 mm 4 mps 746 mmHg 98%
09:00 +7°C° 1 mm 3 mps 746 mmHg 98%
10:00 +7°C° 2.3 mm 5 mps 745 mmHg 97%
11:00 +7°C° 2.3 mm 6 mps 745 mmHg 96%
12:00 +7°C° 2.3 mm 8 mps 744 mmHg 95%
13:00 +7°C° 1.6 mm 8 mps 743 mmHg 95%
14:00 +7°C° 1.6 mm 8 mps 742 mmHg 96%
15:00 +7°C° 1.6 mm 8 mps 741 mmHg 96%
16:00 +7°C° 1.4 mm 8 mps 740 mmHg 96%
17:00 +7°C° 1.4 mm 9 mps 739 mmHg 95%
18:00 +7°C° 1.4 mm 9 mps 739 mmHg 95%
19:00 +7°C° 1.1 mm 8 mps 738 mmHg 96%
20:00 +7°C° 1.1 mm 8 mps 737 mmHg 96%
21:00 +8°C° 1.1 mm 7 mps 737 mmHg 97%
22:00 +9°C° 1.6 mm 8 mps 736 mmHg 96%
23:00 +9°C° 1.6 mm 8 mps 736 mmHg 96%

Tomorrow, 20 January, Wednesday

Time Temperature Precipitation Wind Pressure Humidity
00:00 +8°C° 1.6 mm 9 mps 735 mmHg 96%
01:00 +8°C° 0.3 mm 9 mps 735 mmHg 95%
02:00 +8°C° 0.3 mm 9 mps 734 mmHg 95%
03:00 +7°C° 0.3 mm 9 mps 734 mmHg 95%
04:00 +7°C° 0.4 mm 8 mps 734 mmHg 95%
05:00 +7°C° 0.4 mm 8 mps 733 mmHg 95%
06:00 +8°C° 0.4 mm 7 mps 733 mmHg 95%
07:00 +8°C° 1 mm 6 mps 733 mmHg 95%
08:00 +8°C° 1 mm 6 mps 732 mmHg 96%
09:00 +8°C° 1 mm 5 mps 732 mmHg 97%
10:00 +8°C° 1.9 mm 5 mps 731 mmHg 97%
11:00 +8°C° 1.9 mm 5 mps 731 mmHg 97%
12:00 +10°C° 1.9 mm 4 mps 730 mmHg 97%
13:00 +8°C° 2.1 mm 4 mps 729 mmHg 96%
14:00 +8°C° 2.1 mm 4 mps 729 mmHg 96%
15:00 +8°C° 2.1 mm 4 mps 728 mmHg 96%
16:00 +8°C° 1.7 mm 4 mps 727 mmHg 96%
17:00 +8°C° 1.7 mm 4 mps 727 mmHg 95%
18:00 +7°C° 1.7 mm 4 mps 726 mmHg 95%
19:00 +7°C° 1.5 mm 4 mps 725 mmHg 94%
20:00 +7°C° 1.5 mm 4 mps 725 mmHg 92%
21:00 +7°C° 1.5 mm 5 mps 724 mmHg 91%
22:00 +5°C° 1.5 mm 7 mps 723 mmHg 93%
23:00 +3°C° 1.5 mm 9 mps 723 mmHg 94%

Day after tomorrow, 21 January, Thursday

Time Temperature Precipitation Wind Pressure Humidity
00:00 +2°C° 1.5 mm 11 mps 722 mmHg 96%
01:00 0°C° 0.4 mm 12 mps 723 mmHg 91%
02:00 0°C° 0.4 mm 12 mps 723 mmHg 86%
03:00 0°C° 0.4 mm 12 mps 723 mmHg 81%
04:00 0°C° 0.2 mm 12 mps 724 mmHg 80%
05:00 0°C° 0.2 mm 12 mps 724 mmHg 80%
06:00 0°C° 0.2 mm 12 mps 724 mmHg 79%
07:00 0°C° 0.4 mm 13 mps 724 mmHg 82%
08:00 0°C° 0.4 mm 14 mps 723 mmHg 85%
09:00 0°C° 0.4 mm 14 mps 723 mmHg 87%
10:00 0°C° 0.7 mm 14 mps 723 mmHg 86%
11:00 0°C° 0.7 mm 13 mps 723 mmHg 84%
12:00 +1°C° 0.7 mm 13 mps 723 mmHg 82%
13:00 0°C° 0.7 mm 14 mps 723 mmHg 86%
14:00 0°C° 0.7 mm 15 mps 724 mmHg 89%
15:00 0°C° 0.7 mm 15 mps 724 mmHg 93%
16:00 0°C° 0.8 mm 15 mps 725 mmHg 90%
17:00 0°C° 0.8 mm 14 mps 726 mmHg 88%
18:00 +1°C° 0.8 mm 13 mps 727 mmHg 85%
19:00 +1°C° 0.1 mm 13 mps 727 mmHg 83%
20:00 +2°C° 0.1 mm 12 mps 728 mmHg 80%
21:00 +2°C° 0.1 mm 12 mps 728 mmHg 77%
22:00 +2°C° 0.1 mm 12 mps 729 mmHg 78%
23:00 +2°C° 0.1 mm 12 mps 729 mmHg 78%

22 January, Friday

Time Temperature Precipitation Wind Pressure Humidity
00:00 +2°C° 0.1 mm 12 mps 729 mmHg 78%
01:00 0°C° 0.1 mm 12 mps 730 mmHg 78%
02:00 0°C° 0.1 mm 12 mps 730 mmHg 78%
03:00 0°C° 0.1 mm 12 mps 731 mmHg 78%
04:00 0°C° 0.1 mm 12 mps 731 mmHg 78%
05:00 0°C° 0.1 mm 12 mps 731 mmHg 79%
06:00 0°C° 0.1 mm 12 mps 732 mmHg 79%
07:00 0°C° 0.1 mm 12 mps 732 mmHg 80%
08:00 0°C° 0.1 mm 12 mps 733 mmHg 81%
09:00 0°C° 0.1 mm 12 mps 733 mmHg 83%
10:00 0°C° 0.2 mm 12 mps 733 mmHg 81%
11:00 0°C° 0.2 mm 12 mps 734 mmHg 80%
12:00 +2°C° 0.2 mm 12 mps 734 mmHg 79%
13:00 +1°C° 0.2 mm 11 mps 735 mmHg 79%
14:00 +1°C° 0.2 mm 11 mps 735 mmHg 80%
15:00 +1°C° 0.2 mm 11 mps 736 mmHg 81%
16:00 +1°C° 0.2 mm 9 mps 736 mmHg 83%
17:00 +2°C° 0.2 mm 7 mps 737 mmHg 85%
18:00 +1°C° 0.2 mm 6 mps 738 mmHg 87%
19:00 +1°C° 0 mm 5 mps 738 mmHg 87%
20:00 0°C° 0 mm 4 mps 739 mmHg 87%
21:00 +1°C° 0 mm 2 mps 739 mmHg 87%
22:00 +1°C° 0 mm 2 mps 739 mmHg 85%
23:00 +1°C° 0 mm 2 mps 739 mmHg 82%

23 January, Saturday

Time Temperature Precipitation Wind Pressure Humidity
00:00 +1°C° 0 mm 2 mps 740 mmHg 80%
01:00 +2°C° 0 mm 1 mps 740 mmHg 79%
02:00 +1°C° 0 mm 1 mps 740 mmHg 79%
03:00 +1°C° 0 mm 1 mps 740 mmHg 79%
04:00 +1°C° 0 mm 1 mps 740 mmHg 79%
05:00 +1°C° 0 mm 1 mps 741 mmHg 78%
06:00 +1°C° 0 mm 1 mps 741 mmHg 78%
07:00 +1°C° 0 mm 1 mps 741 mmHg 78%
08:00 +1°C° 0 mm 1 mps 741 mmHg 78%
09:00 +1°C° 0 mm 1 mps 742 mmHg 78%
10:00 +2°C° 0.1 mm 1 mps 742 mmHg 76%
11:00 +2°C° 0.1 mm 2 mps 742 mmHg 74%
12:00 +3°C° 0.1 mm 2 mps 742 mmHg 72%
13:00 +2°C° 0 mm 3 mps 742 mmHg 72%
14:00 +2°C° 0 mm 3 mps 742 mmHg 71%
15:00 +2°C° 0 mm 3 mps 742 mmHg 71%
16:00 +1°C° 0 mm 3 mps 742 mmHg 72%
17:00 0°C° 0 mm 3 mps 743 mmHg 74%
18:00 0°C° 0 mm 3 mps 743 mmHg 76%
19:00 0°C° 0.2 mm 3 mps 743 mmHg 78%
20:00 -1°C° 0.2 mm 4 mps 743 mmHg 81%
21:00 -1°C° 0.2 mm 4 mps 743 mmHg 84%
22:00 -1°C° 0.4 mm 4 mps 743 mmHg 84%
23:00 -1°C° 0.4 mm 4 mps 743 mmHg 84%

24 January, Sunday

Time Temperature Precipitation Wind Pressure Humidity
00:00 -1°C° 0.4 mm 4 mps 743 mmHg 84%
01:00 -1°C° 0.6 mm 4 mps 743 mmHg 86%
02:00 0°C° 0.6 mm 3 mps 743 mmHg 88%
03:00 -1°C° 0.6 mm 3 mps 743 mmHg 90%
04:00 -1°C° 0.3 mm 3 mps 743 mmHg 90%
05:00 -1°C° 0.3 mm 3 mps 743 mmHg 91%
06:00 -1°C° 0.3 mm 3 mps 743 mmHg 92%
07:00 -1°C° 0.4 mm 2 mps 744 mmHg 93%
08:00 -1°C° 0.4 mm 2 mps 744 mmHg 94%
09:00 -1°C° 0.4 mm 2 mps 744 mmHg 96%
10:00 -1°C° 0.1 mm 2 mps 744 mmHg 94%
11:00 +1°C° 0.1 mm 2 mps 744 mmHg 93%
12:00 +2°C° 0.1 mm 2 mps 745 mmHg 92%
13:00 +1°C° 0 mm 3 mps 744 mmHg 89%
14:00 +1°C° 0 mm 3 mps 744 mmHg 86%
15:00 0°C° 0 mm 4 mps 744 mmHg 83%
16:00 0°C° 0 mm 5 mps 744 mmHg 83%
17:00 0°C° 0 mm 5 mps 744 mmHg 84%
18:00 -1°C° 0 mm 6 mps 743 mmHg 84%
19:00 -1°C° 0.2 mm 6 mps 743 mmHg 85%
20:00 -1°C° 0.2 mm 7 mps 743 mmHg 87%
21:00 -1°C° 0.2 mm 7 mps 743 mmHg 88%
22:00 -1°C° 1.7 mm 6 mps 742 mmHg 90%
23:00 +1°C° 1.7 mm 6 mps 742 mmHg 93%
Show more